Location: Vinland
(47.7731°N, 122.6974°W)
Time: 19:05:35
(UTC+00:00)

Vanguard 1 Rocket - Pass Details

Date: 28 March 2023
Orbit: 654 x 4221 km, 34.3° (Epoch: 29 May)

Event Time Altitude Azimuth Distance (km) Brightness Sun altitude
Rises 09:48:49 0° 266° (W) 7,825 11.9 -35.3°
Enters shadow 09:53:33 - 263° (W) 6,719 11.5 -35.0°
Exits shadow 10:17:15 22° 146° (SE) 3,054 9.8 -32.7°
Drops below altitude 10° 10:19:45 10° 134° (SE) 3,550 10.3 -32.5°
Sets 10:22:15 0° 127° (SE) 4,200 10.8 -32.2°
